Location: Newark
(41.9364°N, 2.8061°E)
Time: 06:36:44
(UTC+00:00)

Altair - All Passes

Search period start: 25 February 2020 00:00
Search period end: 06 March 2020 00:00
Orbit: 1502 x 1682 km, 47.2° (Epoch: 24 February)

Date Brightness Start Highest point End Pass type
(mag) Time Alt. Az. Time Alt. Az. Time Alt. Az.
25 Feb - 01:00:52 10° WSW 01:10:18 82° NNW 01:20:11 10° ENE visible
25 Feb - 03:06:21 10° W 03:15:54 65° N 03:25:50 10° E visible
25 Feb - 05:11:31 10° WNW 05:21:23 89° SSW 05:31:32 10° ESE visible
25 Feb - 07:16:45 10° WNW 07:25:34 38° SW 07:34:33 10° SSE daylight
25 Feb - 22:32:27 10° SSW 22:40:55 42° SE 22:49:39 10° ENE night (unlit)
26 Feb - 00:35:42 10° WSW 00:45:06 85° NNW 00:54:56 10° ENE visible
26 Feb - 02:41:08 10° W 02:50:38 64° N 03:00:32 10° E visible
26 Feb - 04:46:20 10° WNW 04:56:11 88° NNE 05:06:18 10° ESE visible
26 Feb - 06:51:29 10° WNW 07:00:27 41° SW 07:09:37 10° SSE daylight
26 Feb - 22:07:35 10° SSW 22:15:51 38° SE 22:24:21 10° ENE night (unlit)
27 Feb - 00:10:32 10° WSW 00:19:55 88° NNW 00:29:42 10° ENE visible
27 Feb - 02:15:54 10° W 02:25:23 64° N 02:35:14 10° E visible
27 Feb - 04:21:10 10° WNW 04:30:57 85° NNE 04:41:04 10° ESE visible
27 Feb - 06:26:13 10° WNW 06:35:20 44° SW 06:44:40 10° SSE daylight
27 Feb - 21:42:45 10° SSW 21:50:48 35° SE 21:59:03 10° ENE night (unlit)
27 Feb - 23:45:23 10° WSW 23:54:44 88° SSE 00:04:28 10° ENE visible
28 Feb - 01:50:41 10° W 02:00:06 64° N 02:09:56 10° E visible
28 Feb - 03:55:59 10° WNW 04:05:43 82° NNE 04:15:49 10° ESE visible
28 Feb - 06:00:59 10° WNW 06:10:13 47° SW 06:19:41 10° SSE visible
28 Feb - 08:10:09 10° WSW 08:13:14 12° WSW 08:16:19 10° SW daylight
28 Feb - 21:17:57 10° S 21:25:44 32° SE 21:33:43 10° ENE night (unlit)
28 Feb - 23:20:15 10° WSW 23:29:33 84° SSE 23:39:14 10° ENE visible
29 Feb - 01:25:27 10° W 01:34:51 65° N 01:44:38 10° ENE visible
29 Feb - 03:30:48 10° WNW 03:40:30 79° NNE 03:50:33 10° ESE visible
29 Feb - 05:35:45 10° WNW 05:45:05 51° SW 05:54:40 10° SSE visible
29 Feb - 07:43:54 10° W 07:48:12 14° WSW 07:52:32 10° SSW daylight
29 Feb - 20:53:11 10° S 21:00:42 29° SE 21:08:22 10° ENE visible
29 Feb - 22:55:08 10° SW 23:04:23 81° SSE 23:14:01 10° ENE night (unlit)
01 Mar - 01:00:14 10° W 01:09:35 65° N 01:19:21 10° ENE visible
01 Mar - 03:05:37 10° WNW 03:15:16 76° NNE 03:25:16 10° ESE visible
01 Mar - 05:10:33 10° WNW 05:19:56 54° SW 05:29:38 10° SE visible
01 Mar - 07:18:00 10° W 07:23:10 16° WSW 07:28:24 10° SSW daylight
01 Mar - 20:28:28 10° S 20:35:40 27° SE 20:42:59 10° ENE visible
01 Mar - 22:30:01 10° SW 22:39:14 76° SSE 22:48:47 10° ENE night (unlit)
02 Mar - 00:35:01 10° W 00:44:21 66° N 00:54:04 10° ENE visible
02 Mar - 02:40:25 10° WNW 02:50:01 74° NNE 03:00:00 10° ESE visible
02 Mar - 04:45:20 10° WNW 04:54:48 58° SW 05:04:34 10° SE visible
02 Mar - 06:52:16 10° W 06:58:07 18° SW 07:04:03 10° SSW daylight
02 Mar - 20:03:48 10° S 20:10:38 24° SE 20:17:34 10° E visible
02 Mar - 22:04:56 10° SW 22:14:05 72° SSE 22:23:35 10° ENE visible
03 Mar - 00:09:47 10° W 00:19:06 67° N 00:28:48 10° ENE visible
03 Mar - 02:15:14 10° WNW 02:24:47 72° NNE 02:34:42 10° E visible
03 Mar - 04:20:09 10° WNW 04:29:39 62° SW 04:39:28 10° SE visible
03 Mar - 06:26:41 10° W 06:33:05 20° SW 06:39:35 10° SSW daylight
03 Mar - 19:39:12 10° S 19:45:37 22° SE 19:52:06 10° E visible
03 Mar - 21:39:52 10° SW 21:48:57 68° SE 21:58:21 10° ENE visible
03 Mar - 23:44:34 10° W 23:53:52 69° NNW 00:03:33 10° ENE visible
04 Mar - 01:50:03 10° WNW 01:59:32 70° NNE 02:09:25 10° E visible
04 Mar - 03:54:57 10° WNW 04:04:29 66° SW 04:14:21 10° SE visible
04 Mar - 06:01:10 10° W 06:08:01 22° SW 06:15:01 10° S daylight
04 Mar - 19:14:41 10° SSE 19:20:36 19° SE 19:26:35 10° E visible
04 Mar - 21:14:49 10° SW 21:23:50 64° SE 21:33:08 10° ENE visible
04 Mar - 23:19:21 10° W 23:28:38 70° NNW 23:38:17 10° ENE visible
05 Mar - 01:24:51 10° WNW 01:34:17 69° NNE 01:44:07 10° E visible
05 Mar - 03:29:47 10° WNW 03:39:20 70° SW 03:49:13 10° SE visible
05 Mar - 05:35:42 10° W 05:42:57 24° SW 05:50:23 10° S visible
05 Mar - 18:50:16 10° SSE 18:55:36 17° SE 19:00:58 10° E visible
05 Mar - 20:49:47 10° SW 20:58:44 60° SE 21:07:54 10° ENE visible
05 Mar - 22:54:08 10° W 23:03:25 72° NNW 23:13:02 10° ENE visible
